Rugby, ND

9:01 PM CDT on September 27, 2016 (GMT -0500)
Rugby Municipal

Weather History for KRUG - May, 2013

Change the Weather History Date:

Friday, May 24, 2013

  Actual Average Record
Temperature  
Mean Temperature 55 °F -  
Max Temperature 64 °F 72 °F 90 °F (1977)
Min Temperature 46 °F 47 °F 29 °F (1983)
Degree Days  
Heating Degree Days 10    
Growing Degree Days 5 (Base 50)    
Moisture  
Dew Point 44 °F    
Average Humidity 74    
Maximum Humidity 100    
Minimum Humidity 42    
Precipitation  
Precipitation 0.00 in - - ()
Sea Level Pressure  
Sea Level Pressure 30.11 in    
Wind  
Wind Speed 15 mph (SE)    
Max Wind Speed 25 mph    
Max Gust Speed 37 mph    
Visibility 7 miles    
Events Rain    
Averages and records for this station are not official NWS values.
T = Trace of Precipitation, MM = Missing Value Source: NWS Daily Summary

Daily Weather History Graph

Daily Weather History Graph

Search for Another Location

Airport or City:

Trip Planner

Search our weather history database for the weather conditions in past years. The results will help you decide how hot, cold, wet, or windy it might be!

Date:

Astronomy

May. 24, 2013 Rise Set
Actual Time 5:49 AM CDT 9:25 PM CDT
Civil Twilight 5:10 AM CDT 10:04 PM CDT
Nautical Twilight 4:17 AM CDT 10:57 PM CDT
Astronomical Twilight 3:05 AM CDT 12:10 AM CDT
Moon 9:06 PM CDT (5/24) 5:27 AM CDT (5/24)
Length of Visible Light 16h 54m
Length of Day
15h 35m
Full, 100% of the Moon is Illuminated
May 24
Full
May 24
Full
May 31
Last Quarter
Jun 8
New
Jun 16
First Quarter

Hourly Weather History & Observations

Time (CDT) Temp. Windchill Dew Point Humidity Pressure Visibility Wind Dir Wind Speed Gust Speed Precip Events Conditions
12:15 AM 48.2 °F - 37.4 °F 66% 30.22 in 10.0 mi ESE 11.5 mph - N/A   Clear
12:35 AM 50.0 °F - 37.4 °F 62% 30.22 in 10.0 mi ESE 12.7 mph - N/A   Clear
12:55 AM 48.2 °F - 37.4 °F 66% 30.21 in 10.0 mi ESE 15.0 mph 18.4 mph N/A   Clear
1:15 AM 48.2 °F - 37.4 °F 66% 30.22 in 10.0 mi ESE 12.7 mph 17.3 mph N/A   Clear
1:35 AM 48.2 °F - 37.4 °F 66% 30.21 in 10.0 mi ESE 11.5 mph - N/A   Clear
1:55 AM 48.2 °F - 37.4 °F 66% 30.21 in 10.0 mi ESE 11.5 mph - N/A   Clear
2:15 AM 48.2 °F - 37.4 °F 66% 30.20 in 10.0 mi ESE 10.4 mph - N/A   Clear
2:35 AM 48.2 °F - 37.4 °F 66% 30.19 in 10.0 mi ESE 11.5 mph - N/A   Clear
2:55 AM 46.4 °F 41.1 °F 37.4 °F 71% 30.19 in 10.0 mi ESE 11.5 mph - N/A   Clear
3:15 AM 46.4 °F 40.7 °F 39.2 °F 76% 30.18 in 10.0 mi ESE 12.7 mph - N/A   Clear
3:35 AM 46.4 °F 40.7 °F 39.2 °F 76% 30.17 in 10.0 mi ESE 12.7 mph - N/A   Clear
3:55 AM 46.4 °F 41.1 °F 41.0 °F 81% 30.17 in 10.0 mi ESE 11.5 mph - N/A   Clear
4:15 AM 46.4 °F 41.5 °F 41.0 °F 81% 30.17 in 10.0 mi ESE 10.4 mph - N/A   Clear
4:35 AM 46.4 °F 41.9 °F 41.0 °F 81% 30.17 in 10.0 mi SE 9.2 mph - N/A   Clear
4:55 AM 48.2 °F - 41.0 °F 76% 30.17 in 10.0 mi SE 10.4 mph - N/A   Clear
5:15 AM 48.2 °F - 41.0 °F 76% 30.16 in 10.0 mi ESE 11.5 mph - N/A   Clear
5:35 AM 48.2 °F - 41.0 °F 76% 30.16 in 10.0 mi ESE 12.7 mph - N/A   Clear
5:55 AM 48.2 °F - 41.0 °F 76% 30.16 in 10.0 mi SE 12.7 mph 17.3 mph N/A   Clear
6:15 AM 50.0 °F - 41.0 °F 71% 30.16 in 10.0 mi SE 13.8 mph 19.6 mph N/A   Clear
6:35 AM 50.0 °F - 39.2 °F 66% 30.15 in 10.0 mi SE 12.7 mph 20.7 mph N/A   Clear
6:55 AM 50.0 °F - 39.2 °F 66% 30.15 in 10.0 mi SE 13.8 mph 21.9 mph N/A   Partly Cloudy
7:15 AM 50.0 °F - 39.2 °F 66% 30.15 in 10.0 mi SE 12.7 mph - N/A   Partly Cloudy
7:35 AM 50.0 °F - 39.2 °F 66% 30.15 in 10.0 mi ESE 15.0 mph - N/A   Scattered Clouds
7:55 AM 51.8 °F - 37.4 °F 58% 30.15 in 10.0 mi ESE 17.3 mph 23.0 mph N/A   Mostly Cloudy
8:15 AM 51.8 °F - 37.4 °F 58% 30.14 in 10.0 mi SE 18.4 mph - N/A   Mostly Cloudy
8:35 AM 51.8 °F - 37.4 °F 58% 30.14 in 10.0 mi SE 16.1 mph 20.7 mph N/A   Mostly Cloudy
8:55 AM 53.6 °F - 39.2 °F 58% 30.13 in 10.0 mi SE 17.3 mph 23.0 mph N/A   Partly Cloudy
9:15 AM 53.6 °F - 39.2 °F 58% 30.13 in 10.0 mi SE 19.6 mph - N/A   Clear
9:35 AM 57.2 °F - 39.2 °F 51% 30.13 in 10.0 mi SE 17.3 mph 24.2 mph N/A   Clear
9:55 AM 57.2 °F - 37.4 °F 48% 30.12 in 10.0 mi SE 19.6 mph 25.3 mph N/A   Clear
10:15 AM 59.0 °F - 37.4 °F 45% 30.11 in 10.0 mi SE 21.9 mph 28.8 mph N/A   Clear
10:35 AM 59.0 °F - 37.4 °F 45% 30.10 in 10.0 mi SE 18.4 mph 33.4 mph N/A   Clear
10:55 AM 60.8 °F - 39.2 °F 45% 30.10 in 10.0 mi SE 21.9 mph 29.9 mph N/A   Partly Cloudy
11:15 AM 60.8 °F - 39.2 °F 45% 30.09 in 10.0 mi SSE 21.9 mph 27.6 mph N/A   Partly Cloudy
11:35 AM 60.8 °F - 39.2 °F 45% 30.08 in 10.0 mi SE 21.9 mph 29.9 mph N/A   Partly Cloudy
11:55 AM 62.6 °F - 39.2 °F 42% 30.08 in 10.0 mi SE 21.9 mph 28.8 mph N/A   Scattered Clouds
12:15 PM 64.4 °F - 41.0 °F 42% 30.07 in 10.0 mi SE 18.4 mph 29.9 mph N/A   Mostly Cloudy
12:35 PM 64.4 °F - 41.0 °F 42% 30.07 in 10.0 mi SSE 23.0 mph 31.1 mph N/A   Mostly Cloudy
12:55 PM 62.6 °F - 41.0 °F 45% 30.06 in 10.0 mi SSE 18.4 mph 31.1 mph N/A   Mostly Cloudy
1:15 PM 62.6 °F - 41.0 °F 45% 30.06 in 10.0 mi SE 19.6 mph 29.9 mph N/A   Overcast
1:35 PM 60.8 °F - 42.8 °F 52% 30.06 in 10.0 mi SE 18.4 mph 25.3 mph N/A   Overcast
1:55 PM 59.0 °F - 42.8 °F 55% 30.06 in 10.0 mi SE 18.4 mph 26.5 mph N/A   Overcast
2:15 PM 59.0 °F - 42.8 °F 55% 30.05 in 10.0 mi SE 18.4 mph 26.5 mph N/A   Overcast
2:35 PM 59.0 °F - 42.8 °F 55% 30.05 in 10.0 mi SE 16.1 mph 27.6 mph N/A   Overcast
2:55 PM 59.0 °F - 42.8 °F 55% 30.04 in 10.0 mi SE 21.9 mph 33.4 mph N/A   Overcast
3:15 PM 59.0 °F - 42.8 °F 55% 30.04 in 10.0 mi SE 25.3 mph 32.2 mph N/A   Overcast
3:35 PM 59.0 °F - 46.4 °F 63% 30.05 in 10.0 mi SSE 21.9 mph 36.8 mph N/A   Overcast
3:55 PM 53.6 °F - 50.0 °F 88% 30.05 in 2.5 mi SSE 21.9 mph 29.9 mph N/A Rain Light Rain
4:15 PM 53.6 °F - 51.8 °F 94% 30.05 in 1.2 mi SE 19.6 mph 29.9 mph N/A Rain Light Rain
4:35 PM 53.6 °F - 53.6 °F 100% 30.05 in 1.8 mi SE 15.0 mph 21.9 mph N/A   Overcast
4:55 PM 53.6 °F - 53.6 °F 100% 30.05 in 1.5 mi SE 17.3 mph 23.0 mph N/A   Overcast
5:15 PM 53.6 °F - 53.6 °F 100% 30.05 in 1.0 mi SSE 17.3 mph 25.3 mph N/A   Overcast
5:35 PM 51.8 °F - 51.8 °F 100% 30.05 in 1.0 mi SE 16.1 mph 23.0 mph N/A   Overcast
5:55 PM 51.8 °F - 51.8 °F 100% 30.04 in 0.8 mi SE 16.1 mph 21.9 mph N/A Rain Light Rain
6:15 PM 51.8 °F - 51.8 °F 100% 30.04 in 1.0 mi SE 19.6 mph 27.6 mph N/A   Overcast
6:35 PM 51.8 °F - 51.8 °F 100% 30.04 in 1.2 mi SE 16.1 mph 23.0 mph N/A   Overcast
6:55 PM 51.8 °F - 51.8 °F 100% 30.04 in 1.2 mi SE 13.8 mph 23.0 mph N/A   Overcast
7:15 PM 51.8 °F - 51.8 °F 100% 30.04 in 0.8 mi SE 12.7 mph 25.3 mph N/A Rain Light Rain
7:35 PM 50.0 °F - 50.0 °F 100% 30.04 in 1.0 mi SE 18.4 mph 25.3 mph N/A Rain Light Rain
7:55 PM 50.0 °F - 50.0 °F 100% 30.04 in 1.5 mi SE 17.3 mph 23.0 mph N/A   Overcast
8:15 PM 50.0 °F - 50.0 °F 100% 30.04 in 2.0 mi ESE 13.8 mph - N/A   Overcast
8:35 PM 50.0 °F - 50.0 °F 100% 30.05 in 1.8 mi ESE 16.1 mph 21.9 mph N/A   Overcast
8:55 PM 50.0 °F - 50.0 °F 100% 30.05 in 2.0 mi SE 18.4 mph 26.5 mph N/A   Overcast
9:15 PM 50.0 °F - 50.0 °F 100% 30.05 in 2.0 mi ESE 19.6 mph 24.2 mph N/A   Overcast
9:35 PM 50.0 °F - 50.0 °F 100% 30.04 in 2.5 mi ESE 18.4 mph 27.6 mph N/A   Overcast
9:55 PM 50.0 °F - 50.0 °F 100% 30.06 in 3.0 mi ESE 16.1 mph 24.2 mph N/A   Overcast
10:15 PM 50.0 °F - 50.0 °F 100% 30.07 in 4.0 mi ESE 15.0 mph 23.0 mph N/A   Overcast
10:35 PM 50.0 °F - 50.0 °F 100% 30.08 in 5.0 mi ESE 13.8 mph - N/A   Overcast
10:55 PM 50.0 °F - 50.0 °F 100% 30.08 in 5.0 mi SE 10.4 mph - N/A   Overcast
11:15 PM 50.0 °F - 50.0 °F 100% 30.08 in 5.0 mi ESE 13.8 mph 19.6 mph N/A   Overcast
11:35 PM 50.0 °F - 50.0 °F 100% 30.08 in 5.0 mi SE 12.7 mph 17.3 mph N/A   Overcast
11:55 PM 50.0 °F - 50.0 °F 100% 30.08 in 6.0 mi SE 12.7 mph - N/A   Overcast